When you browse on this site, cookies collect data to enhance your experience and personalize the content and advertising you see.
Visit our Privacy Policy to learn more. By continuing to use the site, you agree to this use of cookies and data.
  • en Belgique
  • Liste des pays
  • À 7 jours
  • Température de l'eau
  • Carte satellitaire
  • Carte météo
  • Widgets météo
  • user-avatar
    Se connecter

    Météo par heure à Kavarna

    Ce jour, 14 Décembre, Vendredi

    Heure Température Précipitation Vent Pression Humidité
    00:00 +1°C° 0 mm 3 m/s 764 mmHg 70%
    01:00 +2°C° 0 mm 2 m/s 764 mmHg 70%
    02:00 +2°C° 0 mm 2 m/s 764 mmHg 70%
    03:00 +2°C° 0 mm 2 m/s 764 mmHg 69%
    04:00 +2°C° 0 mm 2 m/s 764 mmHg 68%
    05:00 +2°C° 0 mm 2 m/s 764 mmHg 67%
    06:00 +2°C° 0 mm 2 m/s 764 mmHg 66%
    07:00 +2°C° 0 mm 2 m/s 764 mmHg 66%
    08:00 +2°C° 0 mm 2 m/s 765 mmHg 66%
    09:00 +3°C° 0 mm 2 m/s 765 mmHg 63%
    10:00 +4°C° 0 mm 2 m/s 765 mmHg 61%
    11:00 +5°C° 0 mm 2 m/s 765 mmHg 59%
    12:00 +4°C° 0.2 mm 3 m/s 765 mmHg 61%
    13:00 +4°C° 0.2 mm 3 m/s 765 mmHg 64%
    14:00 +4°C° 0.2 mm 3 m/s 765 mmHg 67%
    15:00 +4°C° 0.2 mm 3 m/s 765 mmHg 71%
    16:00 +4°C° 0.2 mm 4 m/s 765 mmHg 75%
    17:00 +3°C° 0.2 mm 4 m/s 765 mmHg 78%
    18:00 +3°C° 0.3 mm 5 m/s 765 mmHg 81%
    19:00 +3°C° 0.3 mm 5 m/s 765 mmHg 83%
    20:00 +3°C° 0.3 mm 5 m/s 765 mmHg 85%
    21:00 +3°C° 0.5 mm 5 m/s 765 mmHg 87%
    22:00 +3°C° 0.5 mm 6 m/s 765 mmHg 88%
    23:00 +4°C° 0.5 mm 6 m/s 765 mmHg 89%

    Demain, 15 Décembre, Samedi

    Heure Température Précipitation Vent Pression Humidité
    00:00 +4°C° 0.5 mm 6 m/s 765 mmHg 90%
    01:00 +4°C° 0.5 mm 6 m/s 765 mmHg 90%
    02:00 +4°C° 0.5 mm 6 m/s 765 mmHg 90%
    03:00 +4°C° 0.5 mm 7 m/s 765 mmHg 90%
    04:00 +4°C° 0.5 mm 7 m/s 765 mmHg 90%
    05:00 +4°C° 0.5 mm 7 m/s 764 mmHg 90%
    06:00 +4°C° 0.4 mm 8 m/s 765 mmHg 90%
    07:00 +5°C° 0.4 mm 8 m/s 765 mmHg 90%
    08:00 +5°C° 0.4 mm 8 m/s 765 mmHg 91%
    09:00 +5°C° 0.3 mm 8 m/s 765 mmHg 91%
    10:00 +5°C° 0.3 mm 8 m/s 765 mmHg 91%
    11:00 +5°C° 0.3 mm 8 m/s 765 mmHg 91%
    12:00 +5°C° 0.2 mm 8 m/s 765 mmHg 91%
    13:00 +6°C° 0.2 mm 8 m/s 765 mmHg 91%
    14:00 +6°C° 0.2 mm 8 m/s 765 mmHg 91%
    15:00 +6°C° 0.7 mm 8 m/s 765 mmHg 92%
    16:00 +6°C° 0.7 mm 8 m/s 765 mmHg 93%
    17:00 +6°C° 0.7 mm 8 m/s 765 mmHg 94%
    18:00 +6°C° 0.4 mm 8 m/s 765 mmHg 94%
    19:00 +6°C° 0.4 mm 8 m/s 765 mmHg 94%
    20:00 +6°C° 0.4 mm 8 m/s 765 mmHg 94%
    21:00 +6°C° 0.1 mm 8 m/s 764 mmHg 94%
    22:00 +7°C° 0.1 mm 8 m/s 764 mmHg 94%
    23:00 +7°C° 0.1 mm 8 m/s 764 mmHg 94%

    Après-demain, 16 Décembre, Dimanche

    Heure Température Précipitation Vent Pression Humidité
    00:00 +7°C° 0 mm 8 m/s 764 mmHg 94%
    01:00 +7°C° 0 mm 8 m/s 764 mmHg 94%
    02:00 +7°C° 0 mm 8 m/s 764 mmHg 94%
    03:00 +7°C° 0.1 mm 8 m/s 764 mmHg 94%
    04:00 +7°C° 0.1 mm 8 m/s 763 mmHg 93%
    05:00 +7°C° 0.1 mm 9 m/s 763 mmHg 93%
    06:00 +7°C° 0.1 mm 9 m/s 763 mmHg 93%
    07:00 +7°C° 0.1 mm 9 m/s 764 mmHg 92%
    08:00 +7°C° 0.1 mm 9 m/s 764 mmHg 92%
    09:00 +6°C° 0.3 mm 9 m/s 764 mmHg 91%
    10:00 +6°C° 0.3 mm 9 m/s 764 mmHg 91%
    11:00 +6°C° 0.3 mm 9 m/s 764 mmHg 90%
    12:00 +6°C° 0.2 mm 9 m/s 764 mmHg 90%
    13:00 +6°C° 0.2 mm 9 m/s 764 mmHg 89%
    14:00 +6°C° 0.2 mm 9 m/s 764 mmHg 88%
    15:00 +6°C° 0.1 mm 9 m/s 764 mmHg 88%
    16:00 +6°C° 0.1 mm 9 m/s 764 mmHg 88%
    17:00 +6°C° 0.1 mm 9 m/s 764 mmHg 88%
    18:00 +6°C° 0.1 mm 8 m/s 765 mmHg 88%
    19:00 +5°C° 0.1 mm 8 m/s 765 mmHg 87%
    20:00 +5°C° 0.1 mm 8 m/s 765 mmHg 87%
    21:00 +5°C° 0.1 mm 8 m/s 766 mmHg 87%
    22:00 +5°C° 0.1 mm 7 m/s 766 mmHg 87%
    23:00 +5°C° 0.1 mm 7 m/s 766 mmHg 86%

    17 Décembre, Lundi

    Heure Température Précipitation Vent Pression Humidité
    00:00 +5°C° 0 mm 7 m/s 766 mmHg 86%
    01:00 +5°C° 0 mm 7 m/s 766 mmHg 87%
    02:00 +4°C° 0 mm 7 m/s 766 mmHg 87%
    03:00 +4°C° 0 mm 7 m/s 766 mmHg 87%
    04:00 +4°C° 0 mm 7 m/s 766 mmHg 86%
    05:00 +4°C° 0 mm 7 m/s 766 mmHg 86%
    06:00 +4°C° 0 mm 7 m/s 766 mmHg 86%
    07:00 +3°C° 0 mm 6 m/s 766 mmHg 86%
    08:00 +3°C° 0 mm 6 m/s 766 mmHg 86%
    09:00 +4°C° 0 mm 6 m/s 766 mmHg 84%
    10:00 +4°C° 0 mm 6 m/s 766 mmHg 82%
    11:00 +4°C° 0 mm 6 m/s 767 mmHg 80%
    12:00 +5°C° 0 mm 6 m/s 766 mmHg 79%
    13:00 +5°C° 0 mm 6 m/s 766 mmHg 78%
    14:00 +5°C° 0 mm 6 m/s 765 mmHg 77%
    15:00 +5°C° 0 mm 6 m/s 765 mmHg 78%
    16:00 +5°C° 0 mm 5 m/s 766 mmHg 79%
    17:00 +5°C° 0 mm 5 m/s 766 mmHg 81%
    18:00 +5°C° 0 mm 5 m/s 766 mmHg 82%
    19:00 +3°C° 0 mm 5 m/s 766 mmHg 83%
    20:00 +3°C° 0 mm 5 m/s 766 mmHg 84%
    21:00 +3°C° 0 mm 5 m/s 766 mmHg 84%
    22:00 +4°C° 0 mm 4 m/s 767 mmHg 85%
    23:00 +4°C° 0 mm 4 m/s 767 mmHg 86%

    18 Décembre, Mardi

    Heure Température Précipitation Vent Pression Humidité
    00:00 +4°C° 0 mm 4 m/s 767 mmHg 85%
    01:00 +4°C° 0 mm 4 m/s 767 mmHg 85%
    02:00 +4°C° 0 mm 4 m/s 767 mmHg 85%
    03:00 +4°C° 0.1 mm 4 m/s 767 mmHg 85%
    04:00 +3°C° 0.1 mm 5 m/s 767 mmHg 85%
    05:00 +3°C° 0.1 mm 5 m/s 767 mmHg 85%
    06:00 +3°C° 0.2 mm 5 m/s 767 mmHg 85%
    07:00 +3°C° 0.2 mm 5 m/s 767 mmHg 85%
    08:00 +3°C° 0.2 mm 5 m/s 768 mmHg 84%
    09:00 +3°C° 0.2 mm 5 m/s 768 mmHg 84%
    10:00 +3°C° 0.2 mm 6 m/s 768 mmHg 83%
    11:00 +3°C° 0.2 mm 6 m/s 768 mmHg 83%
    12:00 +3°C° 0.1 mm 6 m/s 768 mmHg 83%
    13:00 +3°C° 0.1 mm 6 m/s 768 mmHg 82%
    14:00 +3°C° 0.1 mm 6 m/s 768 mmHg 82%
    15:00 +3°C° 0 mm 6 m/s 768 mmHg 82%
    16:00 +3°C° 0 mm 6 m/s 768 mmHg 83%
    17:00 +3°C° 0 mm 6 m/s 769 mmHg 83%
    18:00 +2°C° 0 mm 7 m/s 769 mmHg 83%
    19:00 +2°C° 0 mm 7 m/s 769 mmHg 83%
    20:00 +2°C° 0 mm 7 m/s 769 mmHg 83%
    21:00 +2°C° 0 mm 7 m/s 770 mmHg 83%
    22:00 +2°C° 0 mm 7 m/s 770 mmHg 83%
    23:00 +2°C° 0 mm 7 m/s 770 mmHg 83%

    19 Décembre, Mercredi

    Heure Température Précipitation Vent Pression Humidité
    00:00 0°C° 0 mm 7 m/s 770 mmHg 84%
    01:00 0°C° 0 mm 7 m/s 770 mmHg 85%
    02:00 -1°C° 0 mm 7 m/s 770 mmHg 86%
    03:00 -1°C° 0 mm 7 m/s 770 mmHg 86%
    04:00 -1°C° 0 mm 7 m/s 770 mmHg 86%
    05:00 -1°C° 0 mm 7 m/s 770 mmHg 87%
    06:00 -1°C° 0 mm 7 m/s 770 mmHg 87%
    07:00 -2°C° 0 mm 7 m/s 771 mmHg 87%
    08:00 -2°C° 0 mm 7 m/s 771 mmHg 87%
    09:00 -1°C° 0 mm 7 m/s 771 mmHg 85%
    10:00 -1°C° 0 mm 6 m/s 772 mmHg 83%
    11:00 +1°C° 0 mm 6 m/s 772 mmHg 81%
    12:00 +1°C° 0 mm 6 m/s 771 mmHg 79%
    13:00 +2°C° 0 mm 7 m/s 771 mmHg 78%
    14:00 +2°C° 0 mm 7 m/s 770 mmHg 77%
    15:00 +2°C° 0 mm 6 m/s 771 mmHg 78%
    16:00 +1°C° 0 mm 6 m/s 771 mmHg 78%
    17:00 +1°C° 0 mm 6 m/s 771 mmHg 79%
    18:00 +1°C° 0 mm 5 m/s 771 mmHg 80%
    19:00 +1°C° 0 mm 5 m/s 771 mmHg 82%
    20:00 0°C° 0 mm 5 m/s 771 mmHg 83%
    21:00 0°C° 0 mm 5 m/s 771 mmHg 83%
    22:00 0°C° 0 mm 5 m/s 771 mmHg 84%
    23:00 0°C° 0 mm 4 m/s 771 mmHg 85%
    Voir plus